sat.trackr.live / text

‹ back to catalog

STARLINK-35669

NORAD 66396 · 2025-257S

PAYLOAD ACTIVE UNKNOWN

§ Identity

Operator
Country
US
Launch date
2025-11-09
Launch site
AFETR
Launch vehicle
Mass (kg)
RCS (m²)

Purposes: comms

External: N2YO · Heavens-Above · Gunter

§ Orbital elements

Epoch: 2026-09-20T19:41:27.727584Z

Period
93.85 min
Inclination
53.1593°
Eccentricity
0.0001065
Mean motion
15.34397733 rev/d
Perigee alt
462.0 km
Apogee alt
463.4 km
Semi-major
6,840.8 km
B*
4.8004e-4
RAAN
26.0655°
Arg perigee
97.4350°
Mean anomaly
262.6774°
Rev number
4,967

§ Raw data

STARLINK-356691 66396U 25257S   26263.82045981  .00015876  00000+0  48004-3 0  99922 66396  53.1593  26.0655 0001065  97.4350 262.6774 15.34397733 49677

JSON: /api/v1/satellites/66396 · /tle

For live sub-satellite position, see the globe view (requires WebGL).

§ Visibility from observer

Set your observer location to see the next 7 days of passes ≥ 10°. The values pass through the URL so the page stays shareable.

No JS? Fill the form by hand. The geolocation button needs JavaScript.